Find Starlink 11256

NORAD ID: 60904 Int'l Des: 2024-154 Owner: SPXS Country: US Constellation: starlink operational
LEOCIRCULAR

現在のビュー

3D地球を読み込み中...

About Starlink 11256

Starlink 11256 (NORAD 60904) is a starlink constellation satellite (v2 mini d2c) launched Aug 31, 2024 by SPXS of US. It operates in LEO, CIRCULAR orbit with a mass of 960.00 kg.

Starlink 11256について

説明を読み込み中...

次回通過

Passes for default location (London). Set your location on the main map for personalized predictions.

高度履歴

Loading altitude history...

軌道要素

1 60904U 24154B 26170.71969094 .00000198 00000-0 64851-5 0 9993
2 60904 53.1594 347.9777 0000701 77.2908 282.8188 15.69714275104541
Epoch: Jun 19, 2026 • Age: 8 hours

現在のステータス

高度 364.9 km
速度 7.69 km/s
衛星直下点 -17.99°S, 114.64°W
打ち上げ日 Aug 31, 2024
運用期間 1.7 years
タイプ internet

技術仕様

分類 Payload
質量 960.00 kg
乾燥質量 910.00 kg
総質量 960.00 kg
長さ 0.30 m
直径 4.10 m
スパン 29.00 m
形状 Box + pan
製造者 SPXS
バスタイプ Starlink V2MD
フェーズステータス In Orbit
所有者/国 SPXS/US

Most Searched